Location: Ojai
(34.4480°N, 119.2420°W)
Time: 07:38:46
(UTC-08:00)

Tiangong 2 - Visible Passes

Search period start: 15 December 2018 00:00
Search period end: 25 December 2018 00:00
Orbit: 383 x 391 km, 42.8° (Epoch: 15 December)

Date Brightness Start Highest point End Pass type
(mag) Time Alt. Az. Time Alt. Az. Time Alt. Az.
15 Dec 4.1 18:50:23 10° SSW 18:50:29 11° SSW 18:50:29 11° SSW visible
16 Dec 3.6 17:53:32 10° SSE 17:54:14 11° SE 17:54:47 10° SE visible
17 Dec 2.1 18:28:54 10° SW 18:31:18 37° S 18:31:18 37° S visible
18 Dec 2.8 17:30:44 10° SSW 17:33:15 22° SE 17:35:28 12° E visible
18 Dec 4.0 19:06:49 10° W 19:07:45 17° W 19:07:45 17° W visible
19 Dec 1.0 18:07:54 10° WSW 18:11:03 88° NNW 18:11:51 47° ENE visible
20 Dec 3.1 18:46:19 10° W 18:48:10 24° NW 18:48:10 24° NW visible
21 Dec 1.7 17:47:11 10° W 17:50:15 46° NNW 17:52:09 20° NE visible
22 Dec 2.9 18:25:56 10° WNW 18:28:23 22° NNW 18:28:23 22° NNW visible
23 Dec 2.4 17:26:39 10° W 17:29:29 29° NNW 17:32:19 10° NE visible
24 Dec 3.0 18:05:30 10° NW 18:07:50 18° N 18:08:30 17° N visible
